Location: Street
(51.1247°N, 2.7429°W)
Time: 15:44:04
(UTC+00:00)

AO-85 - Visible Passes

Search period start: 20 March 2023 00:00
Search period end: 30 March 2023 01:00
Orbit: 516 x 753 km, 64.8° (Epoch: 04 January)

Date Brightness Start Highest point End Pass type
(mag) Time Alt. Az. Time Alt. Az. Time Alt. Az.
20 Mar ? 19:10:19 10° NW 19:14:02 44° SW 19:17:48 10° SSE visible
21 Mar ? 19:32:29 10° WNW 19:35:28 21° WSW 19:38:29 10° SSW visible
24 Mar ? 18:57:42 10° WNW 19:00:13 17° WSW 19:02:45 10° SSW visible
